Regional Weather Roundup
Issued by NWS Little Rock, AR

Home | Current Version | Previous Version | Text Only | Print | Product List | Glossary On
Versions: 1 2 3 4 5 6 7 8 9 10 11 12 13 14 15 16 17 18 19 20 21 22 23 24 25 26 27 28 29 30 31 32 33 34 35 36 37 38 39 40 41 42 43 44 45 46 47 48 49 50
000
ASUS44 KLZK 311005
RWRLZK

WEATHER ROUNDUP FOR ARKANSAS
NATIONAL WEATHER SERVICE LITTLE ROCK AR
400 AM CST SAT JAN 31 2015

NOTE: "FAIR" INDICATES FEW OR NO CLOUDS BELOW 12,000 FEET WITH NO
SIGNIFICANT WEATHER AND/OR OBSTRUCTIONS TO VISIBILITY.

ARZ001-003-010-029-311100-
NORTHWEST ARKANSAS

CITY           SKY/WX    TMP DP  RH WIND       PRES   REMARKS
FAYETTEVILLE   CLOUDY    38  28  67 SE3       30.27F
FORT SMITH     CLOUDY    42  29  59 E9        30.30F
HARRISON       CLOUDY    37  25  61 S7        30.30F
BENTONVILLE    CLOUDY    41  25  52 SE7       30.27F
ROGERS         CLOUDY    40  27  59 E5        30.27F
SILOAM SPGS    CLOUDY    41  21  45 S6        30.28F
HIGHFILL       CLOUDY    40  26  57 SE5       30.25F
$$

ARZ004-005-016-311100-
NORTH CENTRAL ARKANSAS

CITY           SKY/WX    TMP DP  RH WIND       PRES   REMARKS
BATESVILLE     CLOUDY    36  28  75 CALM      30.37S
FLIPPIN        CLOUDY    36  23  60 E3        30.33F
MTN HOME       CLOUDY    36  24  62 E6        30.32F
$$

ARZ040-041-311100-
WEST CENTRAL ARKANSAS

CITY           SKY/WX    TMP DP  RH WIND       PRES   REMARKS
MENA           CLOUDY    43  30  61 NE7       30.30S
MOUNT IDA      CLOUDY    41  27  57 CALM      30.29F
$$

ARZ009-017-025-026-028-311100-
NORTHEAST ARKANSAS

CITY           SKY/WX    TMP DP  RH WIND       PRES   REMARKS
CORNING        CLOUDY    32  32 100 N6        30.38S FOG     WCI  26
JONESBORO      CLOUDY    33  30  88 CALM      30.38F
NEWPORT        CLOUDY    35  32  89 NW3       30.39S
WALNUT RIDGE   CLOUDY    34  28  80 W3        30.39R
BLYTHEVILLE    FAIR      34  27  75 SE3       30.38F
$$

ARZ022-023-033-042-044-311100-
CENTRAL ARKANSAS

CITY           SKY/WX    TMP DP  RH WIND       PRES   REMARKS
LITTLE ROCK    CLOUDY    39  28  64 E3        30.37F
N LITTLE ROCK    N/A     38  31  76 E5        30.37F
JACKSONVILLE   CLOUDY    37  30  74 CALM      30.36F
SEARCY         CLOUDY    37  29  72 CALM      30.39F
HOT SPRINGS    CLOUDY    40  26  57 E6        30.33F
RUSSELLVILLE   CLOUDY    40  27  59 E3        30.33F
CLINTON        FAIR      36  28  75 CALM      30.38F
$$

ARZ036-311100-
EAST ARKANSAS

CITY           SKY/WX    TMP DP  RH WIND       PRES   REMARKS
WEST MEMPHIS   CLOUDY    36  28  73 CALM      30.37F
$$

ARZ050-053-066-070-073-311100-
SOUTHWEST ARKANSAS

CITY           SKY/WX    TMP DP  RH WIND       PRES   REMARKS
ARKADELPHIA    PTSUNNY   39  31  73 E3        30.35F
CAMDEN         MOCLDY    34  32  93 CALM      30.35F
TEXARKANA      CLOUDY    41  30  65 VRB5      30.31F
EL DORADO      FAIR      36  30  79 NE6       30.32F
DE QUEEN       CLOUDY    41  30  65 E6        30.30F
$$

ARZ056-057-069-311100-
SOUTHEAST ARKANSAS

CITY           SKY/WX    TMP DP  RH WIND       PRES   REMARKS
PINE BLUFF     PTCLDY    37  30  75 N3        30.37S
STUTTGART      MOCLDY    37  28  70 E7        30.37F
MONTICELLO     PTCLDY    34  28  79 CALM      30.35F

$$




USA.gov is the U.S. government's official web portal to all federal, state and local government web resources and services.